FW8061 Weather Reports


Display with metric or nautical units.
time (UTC)temp
F
wind
direction
speed
MPH
gust
MPH
rain 1hr
in
rain 24hr
in
rain mn
in
humidity
%
barometer
mb
20260508013020 49 329 2.0 5.0 0.00 0.00 0.00 56 1008.4
20260508012019 48 335 2.0 5.0 0.00 0.00 0.00 56 1008.3
20260508011016 49 321 1.0 2.0 0.00 0.00 0.00 56 1008.3
20260508010039 49 317 2.0 3.0 0.00 0.00 0.00 54 1008.3
20260508005020 49 326 2.0 3.0 0.00 0.00 0.00 52 1008.2
20260508004037 50 326 3.0 5.0 0.00 0.00 0.00 51 1008.1
20260508003020 50 326 3.0 5.0 0.00 0.00 0.00 50 1008.0
20260508002020 50 324 4.0 8.0 0.00 0.00 0.00 49 1007.9
20260508001019 50 321 4.0 8.0 0.00 0.00 0.00 47 1007.9
20260508000017 51 319 4.0 8.0 0.00 0.00 0.00 47 1007.8
20260507235018 51 323 5.0 11.0 0.00 0.00 0.00 47 1007.8
20260507234018 51 299 3.0 8.0 0.00 0.00 0.00 45 1007.7
20260507233018 51 329 4.0 8.0 0.00 0.00 0.00 46 1007.7
20260507232018 52 320 5.0 9.0 0.00 0.00 0.00 45 1007.6
20260507231018 52 318 3.0 7.0 0.00 0.00 0.00 44 1007.6
20260507230019 52 328 5.0 9.0 0.00 0.00 0.00 44 1007.6
20260507225019 52 319 6.0 12.0 0.00 0.00 0.00 44 1007.6
20260507224019 51 322 4.0 9.0 0.00 0.00 0.00 47 1007.6
20260507223019 51 306 6.0 12.0 0.00 0.00 0.00 47 1007.7
20260507222019 51 326 5.0 9.0 0.00 0.00 0.00 46 1007.7
20260507221020 52 282 5.0 11.0 0.00 0.00 0.00 45 1007.6
20260507220058 52 314 5.0 10.0 0.00 0.00 0.00 46 1007.6
20260507215040 51 318 5.0 10.0 0.00 0.00 0.00 46 1007.5
20260507214020 51 297 5.0 10.0 0.00 0.00 0.00 46 1007.5
20260507213017 52 316 4.0 9.0 0.00 0.00 0.00 45 1007.4
20260507212020 52 293 6.0 11.0 0.00 0.00 0.00 44 1007.3
20260507211019 52 299 6.0 15.0 0.00 0.00 0.00 44 1007.3
20260507210018 52 298 8.0 16.0 0.00 0.00 0.00 43 1007.3
20260507205019 53 305 6.0 15.0 0.00 0.00 0.00 44 1007.2
20260507204039 53 317 7.0 16.0 0.00 0.00 0.00 42 1007.1
20260507203018 52 313 6.0 13.0 0.00 0.00 0.00 47 1007.0
20260507202018 52 323 6.0 15.0 0.00 0.00 0.00 47 1007.0
20260507201019 52 306 6.0 14.0 0.00 0.00 0.00 46 1007.1
20260507200020 52 313 5.0 14.0 0.00 0.00 0.00 45 1007.0
20260507195019 52 308 6.0 12.0 0.00 0.00 0.00 44 1007.1
20260507194020 52 304 7.0 15.0 0.00 0.00 0.00 46 1007.2
20260507193019 52 311 7.0 14.0 0.00 0.00 0.00 47 1007.1
20260507192019 52 307 5.0 10.0 0.00 0.00 0.00 47 1007.1
20260507191019 51 307 6.0 14.0 0.00 0.00 0.00 48 1007.2
20260507190039 51 303 6.0 17.0 0.00 0.00 0.00 45 1007.2
20260507185041 51 318 5.0 11.0 0.00 0.00 0.00 45 1007.2
20260507184017 52 264 4.0 9.0 0.00 0.00 0.00 44 1007.1
20260507183017 52 293 4.0 11.0 0.00 0.00 0.00 45 1007.1
20260507182041 50 299 5.0 12.0 0.00 0.00 0.00 46 1007.1
20260507181017 51 311 6.0 12.0 0.00 0.00 0.00 46 1007.1
20260507180040 51 251 5.0 11.0 0.00 0.00 0.00 45 1007.1
20260507175021 50 282 5.0 12.0 0.00 0.00 0.00 47 1006.9
20260507174018 51 292 6.0 13.0 0.00 0.00 0.00 46 1006.9
20260507173019 52 295 7.0 16.0 0.00 0.00 0.00 44 1006.9
20260507172038 51 252 5.0 14.0 0.00 0.00 0.00 44 1007.0
20260507171018 51 262 5.0 13.0 0.00 0.00 0.00 45 1007.0
20260507170020 51 313 5.0 11.0 0.00 0.00 0.00 45 1007.1
20260507165017 51 302 6.0 13.0 0.00 0.00 0.00 46 1007.1
20260507164020 52 270 5.0 14.0 0.00 0.00 0.00 45 1007.3
20260507163019 52 286 5.0 11.0 0.00 0.00 0.00 45 1007.2
20260507162019 52 285 6.0 13.0 0.00 0.00 0.00 45 1007.2
20260507161037 51 217 6.0 12.0 0.00 0.00 0.00 49 1007.3
20260507160020 51 223 5.0 11.0 0.00 0.00 0.00 52 1007.3
20260507155019 51 262 5.0 14.0 0.00 0.00 0.00 54 1007.4
20260507154017 50 277 6.0 13.0 0.00 0.00 0.00 54 1007.4
20260507153017 49 239 5.0 12.0 0.00 0.00 0.00 57 1007.4
20260507152100 49 268 6.0 12.0 0.00 0.00 0.00 57 1007.4
20260507151020 49 242 5.0 13.0 0.00 0.00 0.00 57 1007.3
20260507150018 48 286 4.0 10.0 0.00 0.00 0.00 59 1007.4
20260507145019 48 252 4.0 10.0 0.00 0.00 0.00 60 1007.4
20260507144020 48 216 5.0 9.0 0.00 0.00 0.00 61 1007.4
20260507143019 48 220 5.0 12.0 0.00 0.00 0.00 61 1007.4
20260507142018 48 211 5.0 9.0 0.00 0.00 0.00 61 1007.4
20260507141018 47 216 4.0 8.0 0.00 0.00 0.00 62 1007.4
20260507140019 47 230 4.0 11.0 0.00 0.00 0.00 62 1007.4
20260507135039 46 213 5.0 11.0 0.00 0.00 0.00 63 1007.5
20260507134019 46 219 5.0 9.0 0.00 0.00 0.00 64 1007.5
20260507133019 47 221 5.0 10.0 0.00 0.00 0.00 63 1007.5
20260507132019 46 240 4.0 8.0 0.00 0.00 0.00 64 1007.5
20260507131040 45 203 5.0 11.0 0.00 0.00 0.00 64 1007.5
20260507130017 45 260 4.0 11.0 0.00 0.00 0.00 65 1007.7
20260507125020 45 266 5.0 16.0 0.00 0.00 0.00 65 1007.7
20260507124017 45 287 5.0 13.0 0.00 0.00 0.00 65 1007.6
20260507123017 45 280 5.0 11.0 0.00 0.00 0.00 66 1007.7
20260507122021 43 245 4.0 8.0 0.00 0.00 0.00 68 1007.7
20260507121040 43 266 4.0 10.0 0.00 0.00 0.00 69 1007.7
20260507120017 44 254 4.0 7.0 0.00 0.00 0.00 69 1007.6
20260507115019 44 242 4.0 9.0 0.00 0.00 0.00 69 1007.7
20260507114017 44 276 6.0 16.0 0.00 0.00 0.00 69 1007.7
20260507113018 45 246 4.0 13.0 0.00 0.00 0.00 68 1007.7
20260507112018 45 253 4.0 8.0 0.00 0.00 0.00 69 1007.5
20260507111018 46 224 4.0 9.0 0.00 0.00 0.00 78 1007.3
20260507110018 46 217 4.0 9.0 0.00 0.00 0.00 80 1007.1
20260507105018 45 202 3.0 6.0 0.00 0.00 0.00 81 1007.0
20260507104039 45 211 4.0 9.0 0.00 0.00 0.00 81 1006.9
20260507103040 45 227 4.0 8.0 0.00 0.00 0.00 84 1006.8
20260507102025 45 261 3.0 8.0 0.00 0.00 0.00 85 1007.0
20260507101020 45 256 3.0 6.0 0.00 0.00 0.00 82 1007.0
20260507100020 46 209 4.0 7.0 0.00 0.00 0.00 83 1007.0
20260507095019 46 212 3.0 6.0 0.00 0.00 0.00 84 1007.1
20260507094020 46 221 4.0 8.0 0.00 0.00 0.00 85 1007.1
20260507093021 46 243 3.0 8.0 0.00 0.00 0.00 86 1007.0
20260507092019 46 237 3.0 6.0 0.00 0.00 0.00 86 1006.9
20260507091020 46 200 3.0 7.0 0.00 0.00 0.00 86 1006.9
20260507090020 46 245 3.0 6.0 0.00 0.00 0.00 86 1006.8
20260507085024 46 217 3.0 5.0 0.00 0.00 0.00 87 1006.8
20260507084025 46 214 2.0 3.0 0.00 0.00 0.00 87 1006.9
20260507083021 46 222 3.0 8.0 0.00 0.00 0.00 87 1006.9
20260507082107 46 235 2.0 5.0 0.00 0.00 0.00 87 1007.1
20260507081027 46 224 2.0 5.0 0.00 0.00 0.00 87 1007.2
20260507080021 46 199 2.0 7.0 0.00 0.00 0.00 86 1007.2
20260507075021 46 212 3.0 4.0 0.00 0.00 0.00 86 1007.3
20260507074027 46 251 3.0 5.0 0.00 0.00 0.00 86 1007.3
20260507073026 46 208 2.0 5.0 0.00 0.00 0.00 85 1007.3
20260507072046 46 236 1.0 4.0 0.00 0.00 0.00 85 1007.3
20260507071026 46 238 2.0 5.0 0.00 0.00 0.00 84 1007.2
20260507070047 46 234 2.0 4.0 0.00 0.00 0.00 84 1007.2
20260507065021 46 267 3.0 8.0 0.00 0.00 0.00 83 1007.2
20260507064027 46 275 3.0 5.0 0.00 0.00 0.00 83 1007.3
20260507063022 46 238 3.0 7.0 0.00 0.00 0.00 82 1007.3
20260507062022 46 270 3.0 7.0 0.00 0.00 0.00 83 1007.4
20260507061027 46 292 2.0 6.0 0.00 0.00 0.00 83 1007.5
20260507060022 46 257 2.0 5.0 0.00 0.00 0.00 83 1007.5
20260507055022 45 256 3.0 7.0 0.00 0.00 0.00 83 1007.7
20260507054028 45 242 2.0 6.0 0.00 0.00 0.00 83 1007.8
20260507053023 45 285 2.0 6.0 0.00 0.00 0.00 83 1007.8
20260507052027 45 306 2.0 4.0 0.00 0.00 0.00 83 1007.9
20260507051017 45 286 3.0 6.0 0.00 0.00 0.00 83 1008.0
20260507050027 46 273 2.0 5.0 0.00 0.00 0.00 83 1008.2
20260507045023 46 240 2.0 6.0 0.00 0.00 0.00 83 1008.4
20260507044017 45 252 3.0 7.0 0.00 0.00 0.00 83 1008.5
20260507043017 45 283 2.0 5.0 0.00 0.00 0.00 84 1008.5
20260507042028 45 257 2.0 4.0 0.00 0.00 0.00 84 1008.6
20260507041028 45 227 2.0 5.0 0.00 0.00 0.00 84 1008.7
20260507040018 45 252 2.0 4.0 0.00 0.00 0.00 86 1008.7
20260507035028 45 286 2.0 3.0 0.00 0.00 0.00 87 1008.7
20260507034029 45 203 2.0 3.0 0.00 0.00 0.00 87 1008.8
20260507033028 45 208 2.0 3.0 0.00 0.00 0.00 87 1008.9
20260507032028 45 200 2.0 2.0 0.00 0.00 0.00 85 1009.0
20260507031029 46 209 1.0 3.0 0.00 0.00 0.00 84 1009.1
20260507030049 46 207 2.0 3.0 0.00 0.00 0.00 82 1009.2
20260507025029 46 212 2.0 4.0 0.00 0.00 0.00 83 1009.1
20260507024051 46 226 2.0 4.0 0.00 0.00 0.00 82 1009.1
20260507023029 46 212 1.0 2.0 0.00 0.00 0.00 82 1009.2
20260507022029 46 249 2.0 4.0 0.00 0.00 0.00 81 1009.2
20260507021030 46 245 2.0 4.0 0.00 0.00 0.00 80 1009.4
20260507020031 46 224 2.0 3.0 0.00 0.00 0.00 79 1009.4
20260507015110 46 293 2.0 4.0 0.00 0.00 0.00 81 1009.5
20260507014017 46 220 1.0 3.0 0.00 0.00 0.00 81 1009.5